Date,TemperatureHighF,TemperatureAvgF,TemperatureLowF,DewpointHighF,DewpointAvgF,DewpointLowF,HumidityHigh,HumidityAvg,HumidityLow,PressureMaxIn,PressureMinIn,WindSpeedMaxMPH,WindSpeedAvgMPH,GustSpeedMaxMPH,PrecipitationSumIn
2013-1-1,53.4,40.5,34.7,30.6,25.1,20.2,74,56,28,0.00,0.00,8,2,8,0.00
2013-1-2,56.8,41.5,32.7,24.1,19.0,14.2,59,42,22,0.00,0.00,9,3,9,0.00
2013-1-3,59.9,42.1,33.1,29.1,24.6,19.5,61,51,24,0.00,0.00,8,3,8,0.00
2013-1-4,58.3,44.2,34.7,27.9,23.9,20.6,61,46,26,0.00,0.00,9,3,9,0.00
2013-1-5,61.0,50.3,38.1,26.2,17.1,8.4,48,29,14,0.00,0.00,11,4,11,0.00
2013-1-6,48.7,43.5,35.8,38.9,33.1,20.9,78,67,35,0.00,0.00,14,1,14,0.39
2013-1-7,46.8,41.1,34.5,36.6,29.6,26.4,87,65,46,0.00,0.00,11,1,11,0.00
2013-1-8,56.8,44.7,35.1,36.3,30.2,27.3,74,59,35,0.00,0.00,8,2,8,0.00
2013-1-9,60.4,49.5,38.8,39.2,32.8,25.6,71,54,34,0.00,0.00,17,3,17,0.00
2013-1-10,48.9,38.6,29.3,38.0,23.4,16.4,80,56,36,0.00,0.00,17,2,17,0.04
2013-1-11,47.7,36.8,28.4,22.3,17.0,14.4,65,46,29,0.00,0.00,14,2,14,0.00
2013-1-12,47.8,36.3,27.5,20.2,16.2,9.0,59,45,22,0.00,0.00,10,2,10,0.00
2013-1-13,47.8,36.5,28.8,20.5,17.0,14.5,60,46,30,0.00,0.00,10,2,10,0.00
2013-1-14,47.8,37.3,27.3,21.0,17.8,14.1,61,46,28,0.00,0.00,11,2,11,0.00
2013-1-15,52.3,40.2,29.7,22.9,18.1,14.6,59,43,23,0.00,0.00,8,3,8,0.00
2013-1-16,60.1,44.8,33.8,21.4,17.8,12.9,44,35,17,0.00,0.00,9,3,9,0.00
2013-1-17,66.7,49.3,37.2,26.9,20.2,15.1,45,33,15,0.00,0.00,9,4,9,0.00
2013-1-18,67.6,51.0,40.3,25.8,18.6,12.7,39,29,15,0.00,0.00,10,4,10,0.00
2013-1-19,67.1,50.4,40.3,26.7,21.3,14.6,43,33,15,0.00,0.00,10,4,10,0.00
2013-1-20,65.8,48.3,38.3,27.1,20.2,15.4,40,34,15,0.00,0.00,9,4,9,0.00
2013-1-21,66.7,48.9,37.4,30.0,19.4,12.1,43,32,15,0.00,0.00,9,3,9,0.00
2013-1-22,75.2,53.2,40.6,27.5,15.3,8.5,33,23,10,0.00,0.00,9,4,9,0.00
2013-1-23,69.4,58.2,47.3,28.3,14.6,7.1,28,18,12,0.00,0.00,17,4,17,0.00
2013-1-24,62.8,57.6,53.2,48.1,40.5,25.4,79,55,25,0.00,0.00,10,2,10,0.20
2013-1-25,58.1,53.3,50.2,55.8,50.2,46.2,94,89,79,0.00,0.00,8,1,8,0.04
2013-1-26,61.5,53.1,46.8,59.8,48.6,37.9,95,85,65,0.00,0.00,8,1,8,0.04
2013-1-27,53.6,43.4,34.5,38.6,26.9,21.7,77,54,36,0.00,0.00,14,2,14,0.00
2013-1-28,53.4,40.7,32.4,30.9,23.8,19.2,71,54,28,0.00,0.00,10,2,10,0.00
2013-1-29,55.0,42.0,34.3,31.2,25.2,22.3,65,53,32,0.00,0.00,10,3,10,0.00
2013-1-30,62.8,46.0,35.8,34.5,28.6,25.4,69,54,26,0.00,0.00,8,3,8,0.00
2013-1-31,66.4,50.3,40.3,32.8,29.1,25.7,63,47,24,0.00,0.00,8,3,8,0.00
2013-2-1,68.4,52.2,41.4,35.3,28.2,23.0,56,41,20,0.00,0.00,9,4,9,0.00
2013-2-2,64.8,53.4,46.9,36.0,29.6,25.1,58,41,25,0.00,0.00,8,3,8,0.00
2013-2-3,67.3,51.2,41.7,36.4,30.6,24.0,68,47,23,0.00,0.00,10,3,10,0.00
2013-2-4,66.7,51.0,41.4,36.5,33.9,28.8,69,54,25,0.00,0.00,9,3,9,0.00
2013-2-5,64.8,50.2,41.2,38.4,33.2,27.5,77,54,32,0.00,0.00,10,3,10,0.00
2013-2-6,53.8,43.6,37.8,44.7,35.2,31.3,84,73,49,0.00,0.00,10,1,10,0.00
2013-2-7,59.4,44.7,37.0,40.7,31.1,24.2,82,62,27,0.00,0.00,12,2,12,0.04
2013-2-8,48.7,39.5,33.8,41.5,30.2,25.0,84,70,47,0.00,0.00,13,1,13,0.08
2013-2-9,51.1,41.0,31.8,35.6,26.6,24.0,77,58,36,0.00,0.00,10,2,10,0.00
2013-2-10,52.9,43.2,36.5,31.9,26.4,22.1,67,52,32,0.00,0.00,9,2,9,0.00
2013-2-11,58.3,43.3,33.3,28.2,22.9,18.0,65,47,22,0.00,0.00,10,3,10,0.00
2013-2-12,61.7,46.0,35.8,26.4,21.2,16.2,53,40,19,0.00,0.00,9,3,9,0.00
2013-2-13,63.7,47.5,37.9,27.3,23.7,20.6,52,41,21,0.00,0.00,9,4,9,0.00
2013-2-14,66.6,49.8,39.2,31.6,26.5,23.2,55,42,23,0.00,0.00,8,3,8,0.00
2013-2-15,70.2,53.2,42.4,31.4,25.9,20.2,47,36,17,0.00,0.00,9,4,9,0.00
2013-2-16,71.8,54.2,44.8,28.2,20.7,11.9,43,29,14,0.00,0.00,10,3,10,0.00
2013-2-17,67.8,51.1,41.0,28.9,19.8,11.2,49,30,15,0.00,0.00,10,3,10,0.00
2013-2-18,67.1,50.4,40.1,30.8,26.3,22.7,61,41,22,0.00,0.00,12,3,12,0.00
2013-2-19,46.9,40.9,33.1,32.7,27.6,20.8,78,60,40,28.32,0.00,15,2,15,0.12
2013-2-20,45.3,37.2,33.1,27.0,24.3,21.9,78,60,41,28.59,28.32,6,1,6,0.00
2013-2-21,50.2,42.6,35.4,34.8,27.8,23.8,74,57,37,28.70,28.56,10,2,10,0.00
2013-2-22,57.6,44.9,35.4,35.2,27.5,23.9,72,53,29,28.76,28.70,10,2,10,0.00
2013-2-23,58.8,46.9,38.5,32.6,26.4,16.4,62,46,30,28.76,28.59,15,4,15,0.00
2013-2-24,59.2,44.4,33.1,24.0,21.3,17.4,58,42,25,28.79,28.64,10,3,10,0.00
2013-2-25,62.4,47.3,36.9,28.0,23.3,20.8,56,41,21,28.82,28.67,10,3,10,0.00
2013-2-26,61.0,48.1,37.6,30.5,25.7,22.0,61,43,25,28.73,28.64,13,3,13,0.00
2013-2-27,66.4,50.3,39.7,31.1,27.0,22.5,63,43,20,28.88,28.73,9,3,9,0.00
2013-2-28,67.5,52.1,41.7,31.2,26.6,20.6,52,39,18,28.97,28.88,11,3,11,0.00
2013-3-1,72.1,56.1,45.1,33.5,28.7,21.0,52,37,19,28.97,28.79,9,3,9,0.00
2013-3-2,76.8,60.8,48.2,27.0,20.8,13.5,35,23,13,28.82,28.61,13,3,13,0.00
2013-3-3,65.1,58.4,47.1,34.9,30.2,22.8,55,35,21,28.67,28.56,11,3,11,0.00
2013-3-4,67.1,52.9,42.1,34.4,30.6,27.5,59,44,24,28.64,28.56,10,3,10,0.00
2013-3-5,67.5,55.3,45.1,35.2,28.6,17.9,59,38,23,28.61,28.44,15,4,15,0.00
2013-3-6,55.9,49.8,44.6,41.4,31.2,17.5,74,50,25,28.64,28.50,16,4,16,0.08
2013-3-7,53.6,47.4,43.9,40.6,32.6,23.8,79,58,34,28.53,28.38,13,2,13,0.04
2013-3-8,52.9,46.2,39.7,40.3,34.3,30.7,78,64,45,28.59,28.29,10,3,10,0.00
2013-3-9,58.6,47.4,40.5,36.8,32.7,29.0,72,58,35,28.85,28.59,10,2,10,0.00
2013-3-10,64.2,51.2,40.5,38.4,32.2,27.3,74,51,26,28.88,28.79,8,2,8,0.00
2013-3-11,70.5,53.6,42.3,35.0,31.7,28.4,63,46,23,28.82,28.64,9,3,9,0.00
2013-3-12,75.0,59.2,46.0,37.7,33.8,31.2,58,42,21,28.70,28.61,8,3,8,0.00
2013-3-13,81.7,64.1,48.6,37.7,29.3,19.8,46,29,13,28.73,28.61,9,3,9,0.00
2013-3-14,82.8,65.9,53.6,39.0,29.7,22.0,45,28,11,28.70,28.61,10,3,10,0.00
2013-3-15,77.7,64.3,54.9,44.6,36.0,27.4,62,36,18,28.64,28.56,10,3,10,0.00
2013-3-16,75.6,63.2,51.1,44.4,34.3,18.5,67,38,14,28.61,28.53,13,3,13,0.00
2013-3-17,74.1,60.4,46.9,31.2,24.9,12.1,47,28,12,28.61,28.56,13,3,13,0.00
2013-3-18,71.2,58.4,46.0,32.2,27.2,22.2,41,31,19,28.64,28.56,10,3,10,0.00
2013-3-19,74.8,60.6,48.9,38.0,29.0,19.1,54,34,13,28.73,28.61,13,3,13,0.04
2013-3-20,70.3,59.2,52.9,42.8,35.4,25.2,64,43,20,28.73,28.59,11,2,11,0.04
2013-3-21,67.6,54.7,44.4,38.6,34.2,30.5,64,47,30,28.61,28.50,13,3,13,0.00
2013-3-22,66.0,52.7,41.5,42.4,29.4,7.5,73,46,14,28.59,28.47,13,3,13,0.00
2013-3-23,66.9,53.4,41.2,29.7,22.7,16.5,49,32,17,28.64,28.59,11,3,11,0.00
2013-3-24,71.6,57.8,43.3,31.6,25.7,18.5,52,32,16,28.64,28.50,9,3,10,0.00
2013-3-25,73.6,60.8,48.2,33.4,26.4,15.2,48,30,14,28.56,28.47,9,2,9,0.00
2013-3-26,73.0,60.8,48.4,32.8,26.9,18.5,44,29,14,28.53,28.47,9,3,11,0.00
2013-3-27,73.4,60.3,48.7,37.0,29.8,26.2,54,33,19,28.56,28.47,10,3,10,0.00
2013-3-28,69.8,58.6,49.3,40.6,36.5,33.4,60,45,27,28.61,28.56,11,2,11,0.00
2013-3-29,78.6,61.2,48.7,38.7,30.1,20.2,58,35,13,28.64,28.56,8,2,8,0.00
2013-3-30,80.4,64.7,53.4,41.4,30.4,21.9,52,30,12,28.61,28.47,11,3,11,0.00
2013-3-31,70.2,60.0,50.5,49.3,38.2,27.0,81,49,23,28.64,28.53,18,3,18,0.43
2013-4-1,68.5,56.5,46.8,44.8,37.1,29.5,81,52,24,28.70,28.59,11,2,11,0.00
2013-4-2,69.8,57.1,43.7,41.0,35.2,29.3,69,47,24,28.70,28.61,10,2,10,0.00
2013-4-3,76.8,62.3,50.0,42.8,38.3,32.8,68,45,22,28.67,28.56,8,2,8,0.00
2013-4-4,71.1,59.8,53.6,55.6,40.5,34.3,74,51,27,28.70,28.56,10,2,10,0.08
2013-4-5,68.9,56.3,46.8,44.7,38.7,31.6,73,54,27,28.67,28.61,11,2,11,0.00
2013-4-6,71.1,58.1,47.1,41.0,36.1,29.6,67,47,22,28.70,28.61,11,2,11,0.00
2013-4-7,73.6,61.0,46.6,43.5,34.6,26.1,74,42,21,28.67,28.41,15,3,15,0.00
2013-4-8,64.4,52.4,42.8,40.1,28.3,8.8,75,45,18,28.44,28.29,17,3,17,0.12
2013-4-9,70.2,54.4,37.9,27.0,18.8,6.8,41,27,14,28.59,28.41,11,3,11,0.00
2013-4-10,76.8,60.7,43.7,32.2,23.9,18.5,44,28,13,28.73,28.59,9,2,9,0.00
2013-4-11,76.8,64.5,51.3,40.1,32.8,24.4,54,33,15,28.59,28.35,11,3,11,0.00
2013-4-12,79.5,65.7,50.9,41.8,34.0,21.6,64,35,15,28.47,28.38,11,2,11,0.00
2013-4-13,79.9,64.3,53.1,39.8,30.3,18.5,52,32,12,28.44,28.32,10,3,10,0.00
2013-4-14,74.3,59.6,48.6,36.9,27.6,11.1,51,33,11,28.41,28.32,13,3,13,0.00
2013-4-15,68.2,54.5,41.9,35.4,26.3,16.1,61,37,15,28.41,28.32,13,3,13,0.00
2013-4-16,63.0,47.7,34.5,32.8,22.4,15.0,69,40,19,28.59,28.41,31,2,31,0.00
2013-4-17,68.0,53.4,37.0,19.1,13.3,8.4,41,22,12,28.73,28.59,13,3,13,0.00
2013-4-18,72.1,57.2,40.6,21.5,15.7,9.8,35,22,11,28.79,28.73,13,3,13,0.00
2013-4-19,80.2,63.4,47.7,26.1,21.2,17.2,35,22,12,28.79,28.59,12,3,12,0.00
2013-4-20,81.7,65.6,50.4,32.1,25.7,21.2,42,25,12,28.61,28.53,11,3,11,0.00
2013-4-21,85.8,69.5,55.0,36.0,28.7,20.1,43,25,11,28.59,28.50,11,3,11,0.00
2013-4-22,87.3,71.0,57.2,37.4,29.1,16.4,41,24,11,28.53,28.41,12,3,12,0.00
2013-4-23,85.3,71.9,56.5,32.0,25.8,17.9,38,20,11,28.47,28.38,13,3,13,0.00
2013-4-24,86.9,71.3,54.5,30.1,24.4,13.2,36,19,11,28.41,28.32,13,3,13,0.00
2013-4-25,78.1,63.6,49.8,36.8,29.9,22.6,50,30,15,28.61,28.41,11,2,11,0.00
2013-4-26,83.5,67.0,52.9,38.4,31.3,21.0,51,31,11,28.73,28.61,10,3,10,0.00
2013-4-27,88.5,71.6,56.5,37.7,30.7,22.7,44,26,10,28.73,28.59,11,3,11,0.00
2013-4-28,91.4,73.6,58.6,39.0,32.1,24.5,42,25,10,28.59,28.44,10,3,10,0.00
2013-4-29,91.8,74.3,59.9,36.9,29.3,18.5,37,22,9,28.47,28.32,13,3,13,0.00
2013-4-30,87.3,71.2,58.5,37.4,27.9,15.5,38,22,11,28.38,28.29,15,3,15,0.00
2013-5-1,87.1,68.8,53.4,31.6,24.7,12.1,41,22,11,28.64,28.38,12,3,12,0.00
2013-5-2,89.8,74.1,58.8,26.7,20.4,14.1,17,13,10,28.73,28.64,11,3,11,0.00
2013-5-3,91.9,75.1,59.7,30.5,24.0,13.5,27,16,9,28.64,28.35,10,3,10,0.00
2013-5-4,90.0,72.7,59.5,30.0,22.6,14.4,28,16,10,28.38,28.14,11,3,11,0.00
2013-5-5,73.0,65.8,61.5,27.4,19.5,11.1,27,17,12,28.38,28.17,15,4,15,0.00
2013-5-6,73.9,62.4,53.2,45.0,29.0,18.5,73,32,13,28.53,28.38,15,3,15,0.20
2013-5-7,65.5,58.1,52.7,51.8,43.6,36.3,84,61,35,28.59,28.50,10,1,10,0.04
2013-5-8,72.7,61.4,54.1,52.1,41.5,31.3,82,53,23,28.64,28.59,9,1,9,0.04
2013-5-9,78.6,64.9,52.0,45.6,38.6,33.1,66,42,21,28.64,28.59,11,2,11,0.00
2013-5-10,87.4,71.0,55.6,46.9,38.7,28.6,64,36,13,28.70,28.61,10,2,10,0.00
2013-5-11,95.4,77.5,61.7,45.3,35.4,23.4,49,27,9,28.67,28.59,11,3,11,0.00
2013-5-12,99.7,81.5,65.1,39.9,30.4,19.6,35,19,8,28.67,28.53,12,4,12,0.00
2013-5-13,98.2,81.5,65.1,31.3,26.4,19.6,25,15,8,28.61,28.44,13,3,13,0.00
2013-5-14,89.8,76.1,62.1,36.8,28.2,22.2,34,19,10,28.50,28.44,13,3,13,0.00
2013-5-15,90.9,72.9,59.7,38.0,29.2,16.9,42,23,10,28.56,28.50,12,3,12,0.00
2013-5-16,70.9,63.1,54.7,36.3,29.9,24.3,44,29,22,28.56,28.47,10,2,10,0.00
2013-5-17,78.4,64.7,51.4,44.3,27.2,9.8,63,30,11,28.56,28.47,13,2,13,0.00
2013-5-18,81.9,66.9,50.4,30.6,22.9,13.2,38,21,12,28.64,28.56,14,3,14,0.00
2013-5-19,86.7,68.8,53.1,29.0,23.6,11.9,36,20,11,28.61,28.50,15,3,15,0.00
2013-5-20,90.3,73.1,57.4,30.0,23.3,12.1,30,17,10,28.56,28.47,11,3,11,0.00
2013-5-21,90.9,73.1,57.6,30.3,21.8,12.1,24,15,10,28.50,28.38,15,3,15,0.00
2013-5-22,72.5,59.3,43.5,33.2,19.5,6.3,55,25,11,28.47,28.38,15,2,15,0.00
2013-5-23,75.2,61.1,42.6,21.0,12.8,2.9,30,15,11,28.50,28.44,13,3,13,0.00
2013-5-24,81.3,63.4,47.1,23.9,18.0,8.6,32,19,11,28.53,28.44,12,3,12,0.00
2013-5-25,81.7,65.3,50.7,24.0,18.2,8.4,27,17,11,28.53,28.47,12,3,12,0.00
2013-5-26,80.1,64.9,49.8,27.4,21.3,13.1,31,20,12,28.61,28.53,15,3,15,0.00
2013-5-27,81.0,64.6,50.4,35.7,28.5,19.6,47,28,12,28.61,28.53,14,3,14,0.00
2013-5-28,82.0,68.3,57.7,44.6,33.9,22.2,53,32,12,28.53,28.41,17,3,17,0.00
2013-5-29,83.7,70.6,58.3,38.3,30.2,19.6,42,25,11,28.47,28.38,16,3,16,0.00
2013-5-30,88.0,71.6,56.3,38.2,27.9,16.5,45,23,10,28.50,28.44,15,3,15,0.00
2013-5-31,90.3,74.9,58.6,30.9,24.7,18.5,29,17,10,28.53,28.47,13,3,13,0.00
2013-6-1,98.6,81.3,63.7,30.5,25.5,17.6,25,14,8,28.50,28.35,10,3,10,0.00
2013-6-2,100.2,84.5,66.7,28.5,24.9,19.6,20,12,8,28.35,28.20,11,3,11,0.00
2013-6-3,94.3,80.9,63.9,33.8,25.4,18.5,24,14,9,28.35,28.23,12,3,12,0.00
2013-6-4,93.0,78.8,64.9,40.5,31.9,24.2,37,21,9,28.44,28.35,13,2,13,0.00
2013-6-5,93.4,79.2,64.9,42.2,32.1,22.0,40,21,9,28.50,28.41,11,2,11,0.00
2013-6-6,98.2,82.3,67.6,40.0,31.8,23.2,34,19,8,28.47,28.38,11,3,11,0.00
2013-6-7,102.7,85.0,68.9,43.5,33.6,25.3,33,18,7,28.41,28.29,11,2,11,0.00
2013-6-8,108.7,89.3,72.5,43.9,34.0,24.7,32,17,6,28.32,28.23,10,3,10,0.00
2013-6-9,99.3,83.4,71.4,46.2,33.8,22.0,35,19,8,28.38,28.32,12,2,14,0.00
2013-6-10,80.6,69.8,59.0,42.2,35.4,21.2,51,30,13,28.50,28.32,13,3,13,0.00
2013-6-11,94.3,76.3,61.7,36.7,30.8,24.5,36,22,9,28.53,28.44,12,3,12,0.00
2013-6-12,95.5,79.6,64.0,31.7,25.8,13.0,25,15,9,28.50,28.44,14,3,14,0.00
2013-6-13,89.4,72.2,56.3,26.7,18.9,11.1,20,14,10,28.61,28.50,13,3,13,0.00
2013-6-14,90.1,73.6,58.8,26.7,19.9,11.1,19,14,10,28.50,28.38,13,3,13,0.00
2013-6-15,94.1,76.5,60.6,27.1,20.0,11.7,17,12,9,28.50,28.38,15,3,15,0.00
2013-6-16,92.3,76.2,59.7,27.1,20.2,11.1,17,12,9,28.59,28.50,15,4,15,0.00
2013-6-17,91.8,73.8,60.3,28.4,22.4,12.1,25,15,9,28.59,28.50,14,3,14,0.00
2013-6-18,84.4,68.7,55.6,26.6,21.7,11.1,29,18,11,28.53,28.44,14,3,14,0.00
2013-6-19,82.4,65.1,48.2,32.8,24.6,11.1,47,25,11,28.56,28.47,18,2,18,0.00
2013-6-20,87.6,69.8,52.5,26.5,19.9,8.4,26,16,11,28.50,28.44,17,4,17,0.00
2013-6-21,90.5,73.2,57.4,26.7,22.5,13.0,26,16,10,28.50,28.41,16,3,16,0.00
2013-6-22,93.7,76.4,59.5,27.1,21.7,12.1,22,13,9,28.47,28.38,13,3,13,0.00
2013-6-23,83.5,72.3,61.3,39.4,24.9,15.8,35,18,11,28.41,28.35,11,3,11,0.00
2013-6-24,77.0,69.6,64.4,52.4,43.2,37.9,60,40,26,28.47,28.35,7,1,8,0.00
2013-6-25,91.9,77.9,66.0,44.5,38.1,29.2,44,27,12,28.56,28.47,14,2,14,0.00
2013-6-26,95.7,81.4,66.7,42.9,36.4,25.6,39,23,9,28.59,28.50,13,3,15,0.00
2013-6-27,100.6,85.4,69.3,43.3,33.8,24.5,35,19,7,28.61,28.56,14,3,14,0.00
2013-6-28,104.5,89.2,73.2,41.0,32.6,25.3,30,15,7,28.59,28.47,14,4,14,0.00
2013-6-29,107.6,91.6,73.8,38.9,31.2,24.7,26,14,6,28.50,28.38,16,4,16,0.00
2013-6-30,108.9,92.4,77.4,39.2,30.7,24.0,23,13,6,28.41,28.32,12,3,12,0.00
2013-7-1,109.8,93.6,78.4,35.3,28.1,23.6,20,11,5,28.44,28.35,14,3,14,0.00
2013-7-2,108.0,93.0,78.8,37.2,28.2,22.7,21,11,6,28.50,28.41,13,3,13,0.00
2013-7-3,106.7,90.6,77.4,38.2,30.3,24.0,21,13,6,28.47,28.32,13,3,13,0.00
2013-7-4,108.7,92.3,77.4,38.9,31.6,25.3,23,13,6,28.35,28.26,17,3,17,0.00
2013-7-5,103.5,90.5,75.2,45.4,32.1,21.0,31,15,7,28.32,28.26,13,3,13,0.00
2013-7-6,100.9,84.7,68.5,28.6,24.0,18.5,17,11,7,28.35,28.26,12,3,13,0.00
2013-7-7,103.1,88.3,70.0,28.6,24.4,18.6,14,10,7,28.38,28.32,14,4,14,0.00
2013-7-8,104.4,89.0,68.9,28.5,24.1,14.2,14,10,7,28.53,28.38,12,3,14,0.00
2013-7-9,105.4,88.7,71.1,28.9,23.1,14.4,13,10,7,28.59,28.50,13,3,13,0.00
2013-7-10,106.9,88.9,72.7,28.9,23.7,15.0,13,10,6,28.53,28.41,12,3,12,0.00
2013-7-11,99.9,86.3,72.3,28.6,24.2,14.8,13,11,8,28.47,28.41,12,3,14,0.00
2013-7-12,97.9,80.8,66.6,28.6,20.7,12.4,13,11,8,28.47,28.41,10,3,11,0.00
2013-7-13,100.9,82.8,67.5,28.5,21.6,13.1,13,11,7,28.50,28.44,13,4,13,0.00
2013-7-14,101.8,84.1,69.3,28.6,22.2,14.4,13,10,7,28.53,28.41,11,3,11,0.00
2013-7-15,99.3,83.6,69.3,28.6,22.0,14.4,14,11,8,28.44,28.35,15,4,15,0.00
2013-7-16,95.4,79.3,64.2,27.7,20.4,12.1,15,11,9,28.53,28.38,13,4,13,0.00
2013-7-17,95.0,78.7,63.5,27.4,20.2,11.8,15,11,9,28.61,28.53,12,4,12,0.00
2013-7-18,99.7,82.0,66.7,28.6,22.9,14.4,15,12,8,28.59,28.47,13,3,13,0.00
2013-7-19,102.2,84.7,69.3,28.5,23.1,14.4,15,11,7,28.47,28.38,14,3,14,0.00
2013-7-20,104.7,89.6,73.4,28.6,24.8,19.6,13,10,7,28.41,28.29,11,4,11,0.00
2013-7-21,105.6,91.0,75.6,29.1,25.2,21.3,13,10,7,28.41,28.32,13,4,13,0.00
2013-7-22,99.3,86.3,75.7,40.7,25.7,21.5,25,11,8,28.50,28.38,25,4,25,0.00
2013-7-23,96.8,82.9,73.9,47.8,35.2,20.9,39,21,8,28.56,28.47,13,2,13,0.00
2013-7-24,101.3,87.5,70.2,35.7,27.4,20.7,23,12,7,28.53,28.41,15,3,15,0.00
2013-7-25,100.8,89.5,74.7,35.1,28.3,22.1,21,12,7,28.53,28.47,9,3,11,0.00
2013-7-26,104.2,90.6,75.2,37.2,29.5,22.4,23,13,7,28.61,28.53,13,3,13,0.00
2013-7-27,102.2,88.1,74.1,31.3,25.3,20.2,16,11,7,28.53,28.41,13,3,13,0.00
2013-7-28,101.5,86.6,71.4,28.6,24.3,19.6,16,11,7,28.41,28.32,13,3,13,0.00
2013-7-29,98.8,82.6,68.4,28.6,24.7,20.3,17,13,8,28.53,28.38,13,3,13,0.00
2013-7-30,96.6,80.1,66.9,29.6,23.1,17.8,16,12,9,28.61,28.53,17,3,17,0.00
2013-7-31,97.2,79.5,67.3,30.2,26.2,14.4,23,15,8,28.61,28.50,15,3,15,0.00
2013-8-1,94.8,79.8,64.2,27.3,22.2,14.2,18,12,9,28.59,28.47,14,3,14,0.00
2013-8-3,96.3,88.3,70.9,28.3,24.7,14.4,13,10,9,28.50,28.44,11,4,11,0.00
2013-8-4,97.0,81.6,65.8,28.6,21.5,12.1,14,11,8,28.53,28.47,14,3,14,0.00
2013-8-5,97.2,81.8,66.2,28.6,21.2,12.1,14,11,8,28.56,28.47,11,3,14,0.00
2013-8-6,95.2,80.2,66.2,27.5,21.0,12.1,17,11,9,28.53,28.47,14,3,14,0.00
2013-8-7,89.2,74.1,58.8,32.7,24.3,18.5,26,16,10,28.61,28.53,12,2,12,0.00
2013-8-8,88.5,74.3,59.4,29.6,25.0,17.9,29,17,10,28.56,28.44,12,3,12,0.00
2013-8-9,90.7,74.3,60.8,26.7,22.2,15.8,24,15,10,28.50,28.44,13,3,13,0.00
2013-8-10,92.1,75.5,61.3,27.1,21.5,15.8,19,14,9,28.56,28.50,15,3,15,0.00
2013-8-11,70.9,65.3,62.4,25.7,22.6,20.1,24,20,17,28.56,28.53,7,3,7,0.00
2013-8-18,96.3,95.2,93.9,28.3,27.5,26.6,9,9,9,28.44,0.00,11,3,11,0.00
2013-8-19,95.2,95.2,95.2,27.5,27.5,27.5,9,9,9,28.41,28.41,3,3,5,0.00
2013-8-20,95.2,95.2,95.2,27.5,27.5,27.5,9,9,9,28.41,28.41,3,3,5,0.00
2013-8-21,95.2,95.2,95.2,27.5,27.5,27.5,9,9,9,28.41,28.41,3,3,5,0.00
2013-8-22,95.2,95.2,95.2,27.5,27.5,27.5,9,9,9,28.41,28.41,3,3,5,0.00
2013-8-23,95.2,95.2,95.2,27.5,27.5,27.5,9,9,9,28.41,28.41,3,3,5,0.00
2013-8-24,95.2,95.2,95.2,27.5,27.5,27.5,9,9,9,28.41,28.41,3,3,5,0.00
2013-8-25,95.2,95.2,95.2,27.5,27.5,27.5,9,9,9,28.41,28.41,3,3,5,0.00
2013-8-26,95.2,95.2,95.2,27.5,27.5,27.5,9,9,9,28.41,28.41,3,3,5,0.00
2013-8-27,95.2,95.2,95.2,27.5,27.5,27.5,9,9,9,28.41,28.41,3,3,5,0.00
2013-8-28,95.2,95.2,95.2,27.5,27.5,27.5,9,9,9,28.41,28.41,3,3,5,0.00
2013-8-29,95.2,95.2,95.2,27.5,27.5,27.5,9,9,9,28.41,28.41,3,3,5,0.00
2013-8-30,95.2,95.2,95.2,27.5,27.5,27.5,9,9,9,28.41,28.41,3,3,5,0.00
2013-8-31,95.2,95.2,95.2,27.5,27.5,27.5,9,9,9,28.41,28.41,3,3,5,0.00
2013-9-1,95.9,95.2,94.6,27.8,27.5,27.1,9,9,9,28.47,28.41,9,3,9,0.00
2013-9-3,93.6,84.5,72.1,41.0,30.5,22.7,31,15,9,28.53,28.44,12,3,12,0.00
2013-9-4,95.9,81.3,69.4,37.7,30.4,22.0,31,18,9,28.56,28.47,12,3,12,0.00
2013-9-5,93.9,79.4,66.2,38.0,29.0,19.6,33,18,9,28.53,28.44,13,2,13,0.00
2013-9-6,94.6,79.8,66.6,34.5,27.7,19.6,29,16,9,28.53,28.41,11,3,11,0.00
2013-9-7,100.2,82.8,68.0,30.3,26.3,20.0,22,14,8,28.47,28.38,13,3,13,0.00
2013-9-8,100.2,84.1,69.4,28.5,23.4,14.6,15,11,8,28.44,28.32,13,3,13,0.00
2013-9-9,99.3,83.6,70.3,28.6,23.6,18.9,14,11,8,28.38,28.26,13,3,13,0.00
2013-9-10,97.7,82.4,68.7,28.6,23.1,15.1,15,12,8,28.41,28.29,12,3,12,0.00
2013-9-11,89.4,76.5,64.8,32.0,23.0,16.8,24,14,10,28.53,28.41,10,2,10,0.00
2013-9-12,69.1,66.2,63.9,32.5,29.1,27.0,26,25,23,28.53,28.47,7,2,7,0.00
2013-9-14,67.1,67.1,67.1,30.1,30.1,30.1,25,25,25,28.53,28.53,4,4,4,0.00
2013-9-18,67.1,67.1,67.1,30.1,30.1,30.1,25,25,25,28.53,28.53,4,4,4,0.00